{"data":{"norad_id":59433,"epoch":"2026-09-21T18:52:27.523488Z","epoch_age_seconds":53898,"freshness":"FRESH","line1":"1 59433U 24065N   26264.78642967  .00000717  00000+0  32363-4 0  9995","line2":"2 59433  53.1593  91.4753 0001140  96.0658 264.0474 15.34388387138943","mean_motion":15.34388387,"eccentricity":0.000114,"inclination_deg":53.1593,"raan_deg":91.4753,"arg_perigee_deg":96.0658,"mean_anomaly_deg":264.0474,"bstar":3.2363e-5,"rev_number":13894,"period_min":93.84846836696,"perigee_km":461.95789698587,"apogee_km":463.51761643039,"semimajor_km":6840.8747567081,"source":"CELESTRAK","updated_at":"2026-09-22T09:00:48.940828Z"}}